Flag for Germany Weather past 2 weeks in Tübingen, Baden-Württemberg, Germany

Now
37 °F

Clear.


Feels Like: 31 °F
Forecast: 34 / 56 °F
Wind: 8 mph from West

Location: Stuttgart-Echterdingen

Current Time: Mar 27, 2015 at 11:46:28 PM

Latest Report: Mar 27, 2015 at 11:20 PM


Visibility: 10 mi

Pressure: 30.24 "Hg

Humidity: 70%

Dew point: 28 °F

Location of TübingenLocation

Historic Weather in Tübingen — Graph

°F

Tübingen temperature yesterday

Maximum temperature yesterday: 45 °F (at 12:20 AM)
Minimum temperature yesterday: 41 °F (at 7:20 AM)
Average temperature yesterday: 43 °F

Past Weeks' High & Low Weather Summary

 TemperatureHumidityPressure
High66 °F (Mar 17, 2:50 PM)100% (Mar 15, 5:50 AM)30.36 "Hg (Mar 15, 5:50 AM)
Low28 °F (Mar 13, 3:20 AM)29% (Mar 16, 3:20 PM)29.56 "Hg (Mar 25, 1:50 PM)
Average44 °F70%30.05 "Hg
* Reported Mar 12 10:20 PM — Mar 27 10:20 PM, Tübingen, Weather by CustomWeather, © 2015

Note: Actual official high and low records may vary slightly from our data, if they occured in-between our weather recording intervals... More about our weather records

Advertising

Tübingen weather history for previous 24 hours

 ConditionsComfort  
Time TempWeatherWind HumidityBarometerVisibility
10:20 PM
Fri, Mar 27
39 °FClear.8 mph65%30.21 "Hg10 mi
9:50 PM43 °FClear.13 mph61%30.21 "Hg10 mi
9:20 PM45 °FClear.13 mph57%30.21 "Hg10 mi
8:50 PM45 °FClear.7 mph61%30.21 "Hg10 mi
8:20 PM45 °FClear.8 mph57%30.18 "Hg10 mi
7:50 PM46 °FClear.8 mph53%30.18 "Hg10 mi
7:20 PM46 °FClear.9 mph53%30.18 "Hg10 mi
6:50 PM48 °FClear.13 mph46%30.15 "Hg10 mi
6:20 PM48 °FSunny.14 mph46%30.15 "Hg10 mi
5:50 PM48 °FSunny.13 mph50%30.15 "Hg10 mi
5:20 PM48 °FSunny.13 mph50%30.12 "Hg10 mi
4:50 PM48 °FSunny.15 mph50%30.12 "Hg10 mi
4:20 PM48 °FSunny.15 mph46%30.12 "Hg10 mi
3:50 PM48 °FBroken clouds.18 mph50%30.09 "HgN/A
3:20 PM48 °FBroken clouds.17 mph50%30.09 "HgN/A
2:50 PM48 °FBroken clouds.15 mph54%30.09 "HgN/A
2:20 PM48 °FBroken clouds.20 mph54%30.09 "HgN/A
1:50 PM48 °FBroken clouds.15 mph54%30.09 "HgN/A
1:20 PM48 °FBroken clouds.13 mph50%30.09 "HgN/A
12:50 PM50 °FPartly sunny.17 mph50%30.07 "HgN/A
12:20 PM46 °FBroken clouds.15 mph53%30.07 "HgN/A
11:50 AM46 °FBroken clouds.17 mph53%30.07 "HgN/A
11:20 AM46 °FScattered clouds.20 mph53%30.07 "HgN/A
10:50 AM46 °FPartly sunny.23 mph53%30.07 "HgN/A
10:20 AM46 °FPartly sunny.20 mph53%30.04 "HgN/A
9:50 AM46 °FPartly sunny.18 mph57%30.04 "HgN/A
9:20 AM46 °FPartly sunny.14 mph62%30.04 "HgN/A
8:50 AM45 °FPassing clouds.10 mph76%30.04 "HgN/A
8:20 AM43 °FPassing clouds.12 mph81%30.01 "HgN/A
7:50 AM41 °FPartly sunny.9 mph87%30.01 "HgN/A
7:20 AM41 °FPartly sunny.8 mph87%29.98 "HgN/A
6:50 AM39 °FScattered clouds.5 mph93%29.98 "HgN/A
6:20 AM39 °FScattered clouds.6 mph93%29.98 "HgN/A
5:50 AM41 °FPartly cloudy.6 mph87%29.95 "HgN/A
5:20 AM41 °FLight rain. Passing clouds.7 mph87%29.95 "HgN/A
4:50 AM41 °FLight rain. Passing clouds.6 mph87%29.92 "HgN/A
3:50 AM41 °FPassing clouds.5 mph81%29.92 "HgN/A
3:20 AM41 °FPassing clouds.6 mph81%29.92 "HgN/A
2:50 AM41 °FPassing clouds.6 mph81%29.92 "HgN/A
2:20 AM41 °FPassing clouds.7 mph81%29.92 "HgN/A
1:50 AM41 °FPassing clouds.7 mph81%29.89 "HgN/A
1:20 AM41 °FPartly cloudy.9 mph87%29.89 "HgN/A
12:50 AM41 °FPartly cloudy.8 mph87%29.89 "HgN/A
12:20 AM41 °FPassing clouds.9 mph81%29.89 "HgN/A
11:50 PM
Thu, Mar 26
41 °FPassing clouds.8 mph81%29.86 "HgN/A
11:20 PM41 °FPassing clouds.7 mph87%29.86 "HgN/A
Weather by CustomWeather, © 2015

See weather overviewHow to use our weather pages